Preview of NWS' New Version of Forecast
This preview is not operational and should not be used for support decisions.

Regional Weather Roundup (RWR)

Issued by National Weather Service (NWS)

                            
000
ASUS44 KMEG 211510
RWRTN 
TENNESSEE HOURLY STATE WEATHER ROUNDUP
NATIONAL WEATHER SERVICE MEMPHIS TN
1000 AM CDT SUN JUL 21 2019

TNZ002-004-019-021-049-052-054-088>092-211600-
WEST TENNESSEE
  
CITY           SKY/WX    TMP DP  RH WIND       PRES   REMARKS
MEMPHIS INTL   FAIR      84  77  79 SW5       30.00F HX  94           
NWS MEMPHIS      N/A     84 N/A N/A MISG        N/A                   
JACKSON        CLOUDY    76  74  93 S8        30.03S                  
DYERSBURG      PTSUNNY   83  78  85 VRB3      30.01R HX  93           
SOMERVILLE     CLOUDY    79  75  89 S6        30.01R                  
COVINGTON      MOSUNNY   84  77  79 SW7       29.99S HX  94           
UNION CITY     CLOUDY    82  79  89 S9        29.98R HX  93           
BOLIVAR        CLOUDY    77  75  94 SE3       30.02S                  
HUNTINGDON     CLOUDY    79  75  89 SW7       30.02R                  
LEXINGTON      CLOUDY    77  73  88 VRB5      30.03R                  
SELMER         SUNNY     75  73  94 VRB3      30.03S FOG              
SAVANNAH       CLOUDY    79  75  89 SW6       30.03R                  
$$

TNZ008-025-027-028-033-062-065-066-211600-
NORTH MIDDLE TENNESSEE
  
CITY           SKY/WX    TMP DP  RH WIND       PRES   REMARKS
NASHVILLE      CLOUDY    78  73  84 VRB5      30.04S                  
PORTLAND       CLOUDY    75  73  94 S6        30.04R                  
CLARKSVILLE    CLOUDY    80  75  84 SW6       30.01S                  
LEBANON        CLOUDY    77  73  88 SW10      30.02S                  
SMYRNA         CLOUDY    76  73  91 S5        30.06R                  
MURFREESBORO   CLOUDY    77  73  88 SW12      30.03S                  
COOKEVILLE     CLOUDY    79  73  83 SW7       30.07R                  
LIVINGSTON     PTSUNNY   75  72  88 SW7G13    30.07R                  
GALLATIN       CLOUDY    75  73  94 CALM      30.07R                  
CROSSVILLE     CLOUDY    74  69  85 VRB3      30.12S                  
ROCKWOOD       PTSUNNY   75  73  94 SW5       30.10S                  
$$

TNZ061-075-076-078-094-096-097-211600-
SOUTH MIDDLE TENNESSEE
  
CITY           SKY/WX    TMP DP  RH WIND       PRES   REMARKS
LAWRENCEBURG   CLOUDY    73  72  94 CALM      30.06S                  
LEWISBURG      CLOUDY    77  73  88 SW5       30.05S                  
FAYETTEVILLE   CLOUDY    79  73  83 VRB5      30.07S                  
TULLAHOMA      CLOUDY    79  73  83 S8        30.07S                  
WINCHESTER     CLOUDY    79  72  78 W5        30.08R                  
MCMINNVILLE    CLOUDY    77  73  88 VRB7      30.07S                  
COLUMBIA       PTSUNNY   77  77 100 S7        30.03S FOG              
SHELBYVILLE    CLOUDY    77  73  88 SW9       30.06S                  
$$

TNZ017-018-042-046-047-211600-
NORTHEAST TENNESSEE
  
CITY           SKY/WX    TMP DP  RH WIND       PRES   REMARKS
TRI CITIES     CLOUDY    79  71  76 VRB3      30.10S                  
ELIZABETHTON   CLOUDY    79  72  78 SW6       30.10S                  
GREENEVILLE    CLOUDY    77  72  83 W5        30.11R                  
$$

TNZ012-013-036-069-073-074-211600-
CENTRAL EAST TENNESSEE
  
CITY           SKY/WX    TMP DP  RH WIND       PRES   REMARKS
KNOXVILLE      CLOUDY    82  71  69 SW14      30.06F                  
OAK RIDGE      PTSUNNY   81  72  74 W6        30.08S                  
DOWNTOWN KNOXV CLOUDY    81  73  78 SW10      30.07S                  
GATLINBURG     MOSUNNY   81  73  78 CALM      30.06F                  
MORRISTOWN     PTSUNNY   79  75  89 W7        30.08S                  
JACKSBORO      PTSUNNY   81  73  78 VRB3      30.10S                  
$$

TNZ083-085-099-211600-
SOUTHEAST TENNESSEE
  
CITY           SKY/WX    TMP DP  RH WIND       PRES   REMARKS
CHATTANOOGA    PTSUNNY   80  71  74 SE5       30.08S                  
DAYTON         CLOUDY    81  73  78 S6        30.06S                  
$$

SKY/WX REPORTED AS FAIR MEANS FEW OR NO CLOUDS BELOW
12 THOUSAND FEET.